Denver, CO

7:07 PM MDT on May 25, 2018 (GMT -0600)
Denver International

Weather History for KDEN - December, 2012

Change the Weather History Date:

Monday, December 17, 2012

  Actual Average Record
Temperature  
Mean Temperature 37 °F 29 °F  
Max Temperature 51 °F 42 °F 73 °F (1980)
Min Temperature 22 °F 17 °F -15 °F (2016)
Degree Days  
Heating Degree Days 28 36  
Month to date heating degree days 461 591  
Since 1 July heating degree days 1656 1973  
Cooling Degree Days 0 0  
Month to date cooling degree days 0 0  
Year to date cooling degree days 1236 769  
Moisture  
Dew Point 10 °F    
Average Humidity 36    
Maximum Humidity 50    
Minimum Humidity 21    
Precipitation  
Precipitation 0.00 in 0.01 in 0.42 in (1934)
Month to date precipitation 0.05 0.20  
Year to date precipitation 9.89 14.15  
Snow  
Snow 0.00 in - - ()
Month to date snowfall 0.9  
Since 1 July snowfall 8.1  
Snow Depth 0.00 in    
Sea Level Pressure  
Sea Level Pressure 29.62 in    
Wind  
Wind Speed 15 mph (SW)    
Max Wind Speed 33 mph    
Max Gust Speed 41 mph    
Visibility 10 miles    
Events      
T = Trace of Precipitation, MM = Missing Value Source: NWS Daily Summary

Daily Weather History Graph

Daily Weather History Graph

Search for Another Location

Airport or City:

Astronomy

Dec. 17, 2012 Rise Set
Actual Time 7:14 AM MST 4:35 PM MST
Civil Twilight 6:44 AM MST 5:06 PM MST
Nautical Twilight 6:10 AM MST 5:40 PM MST
Astronomical Twilight 5:37 AM MST 6:13 PM MST
Moon 10:24 AM MST (12/17) 9:59 PM MST (12/17)
Length of Visible Light 10h 21m
Length of Day
9h 21m
Waxing Crescent, 25% of the Moon is Illuminated
Dec 17
Waxing Crescent
Dec 19
First Quarter
Dec 28
Full
Jan 4
Last Quarter
Jan 11
New

Hourly Weather History & Observations

Time (MST) Temp. Windchill Dew Point Humidity Pressure Visibility Wind Dir Wind Speed Gust Speed Precip Events Conditions
12:53 AM 26.1 °F 15.6 °F 6.1 °F 43% 29.76 in 10.0 mi SSW 11.5 mph - N/A   Scattered Clouds
1:53 AM 28.9 °F 19.8 °F 7.0 °F 40% 29.73 in 10.0 mi SSW 10.4 mph - N/A   Mostly Cloudy
2:53 AM 30.0 °F 20.0 °F 6.1 °F 36% 29.71 in 10.0 mi SW 12.7 mph - N/A   Scattered Clouds
3:53 AM 30.9 °F 21.2 °F 7.0 °F 37% 29.69 in 10.0 mi WSW 12.7 mph - N/A   Partly Cloudy
4:53 AM 28.0 °F 18.1 °F 6.1 °F 39% 29.70 in 10.0 mi South 11.5 mph - N/A   Partly Cloudy
5:53 AM 23.0 °F 11.7 °F 6.1 °F 48% 29.69 in 10.0 mi South 11.5 mph - N/A   Scattered Clouds
6:53 AM 30.0 °F 18.7 °F 6.1 °F 36% 29.69 in 10.0 mi SSW 16.1 mph - N/A   Scattered Clouds
7:53 AM 34.0 °F 27.2 °F 7.0 °F 32% 29.67 in 10.0 mi WSW 8.1 mph - N/A   Scattered Clouds
8:53 AM 39.0 °F 29.0 °F 10.0 °F 30% 29.61 in 10.0 mi WSW 20.7 mph 25.3 mph N/A   Scattered Clouds
9:53 AM 45.0 °F 35.8 °F 12.0 °F 26% 29.57 in 10.0 mi WSW 26.5 mph 36.8 mph N/A   Scattered Clouds
10:53 AM 48.9 °F - 12.0 °F 23% 29.58 in 10.0 mi West 19.6 mph 24.2 mph N/A   Scattered Clouds
11:53 AM 50.0 °F - 12.0 °F 22% 29.57 in 10.0 mi WNW 25.3 mph 29.9 mph N/A   Scattered Clouds
12:53 PM 48.9 °F - 12.0 °F 23% 29.55 in 10.0 mi West 20.7 mph 27.6 mph N/A   Scattered Clouds
1:53 PM 48.0 °F - 12.9 °F 24% 29.53 in 10.0 mi WNW 20.7 mph 33.4 mph N/A   Scattered Clouds
2:53 PM 50.0 °F - 14.0 °F 24% 29.53 in 10.0 mi WNW 23.0 mph 27.6 mph N/A   Scattered Clouds
5:53 PM 39.0 °F 31.4 °F 12.0 °F 33% 29.62 in 10.0 mi West 12.7 mph - N/A   Scattered Clouds
6:53 PM 39.9 °F 31.4 °F 12.9 °F 33% 29.58 in 10.0 mi WSW 16.1 mph - N/A   Scattered Clouds
7:53 PM 36.0 °F 26.7 °F 12.0 °F 37% 29.59 in 10.0 mi WSW 15.0 mph - N/A   Scattered Clouds
8:53 PM 37.9 °F 30.0 °F 12.9 °F 36% 29.57 in 10.0 mi SSW 12.7 mph - N/A   Scattered Clouds
9:53 PM 33.1 °F 26.1 °F 12.0 °F 42% 29.58 in 10.0 mi South 8.1 mph - N/A   Scattered Clouds
10:53 PM 30.9 °F 21.7 °F 12.9 °F 47% 29.59 in 10.0 mi SSW 11.5 mph - N/A   Partly Cloudy
11:53 PM 30.9 °F 25.2 °F 12.9 °F 47% 29.59 in 10.0 mi SW 5.8 mph - N/A   Mostly Cloudy